Location: ????????
(55.0097°N, 38.5678°E)
Time: 13:42:52
(UTC+00:00)

COSMOS 1867 COOLANT - Visible Passes

Search period start: 14 September 2024 00:00
Search period end: 24 September 2024 00:00
Orbit: 766 x 796 km, 65.0° (Epoch: 13 September)

Date Brightness Start Highest point End Pass type
(mag) Time Alt. Az. Time Alt. Az. Time Alt. Az.
14 Sep ? 00:12:14 27° SSE 00:14:25 39° ESE 00:19:28 10° NE visible
14 Sep ? 01:52:46 12° WSW 01:57:44 62° NW 02:03:10 10° NE visible
14 Sep ? 23:39:41 28° SE 23:40:50 30° ESE 23:45:32 10° ENE visible
15 Sep ? 01:20:13 21° WSW 01:23:55 75° NW 01:29:24 10° NE visible
15 Sep ? 23:07:06 23° ESE 23:07:16 23° ESE 23:11:31 10° ENE visible
16 Sep ? 00:47:38 34° SW 00:50:07 90° SSE 00:55:37 10° NE visible
16 Sep ? 22:34:28 17° E 22:34:28 17° E 22:37:18 10° ENE visible
17 Sep ? 00:14:59 50° SSW 00:16:22 73° SE 00:21:49 10° NE visible
17 Sep ? 01:55:31 12° W 02:00:12 42° NNW 02:05:24 10° NE visible
17 Sep ? 22:01:47 12° E 22:01:47 12° E 22:02:44 10° E visible
17 Sep ? 23:42:19 56° SE 23:42:38 57° SE 23:48:00 10° NE visible
18 Sep ? 01:22:50 21° W 01:26:17 48° NNW 01:31:35 10° NE visible
18 Sep ? 23:09:36 43° ESE 23:09:36 43° ESE 23:14:08 10° NE visible
19 Sep ? 00:50:07 33° W 00:52:23 56° NW 00:57:46 10° NE visible
19 Sep ? 22:36:52 29° E 22:36:52 29° E 22:40:13 10° ENE visible
20 Sep ? 00:17:23 53° W 00:18:31 68° NW 00:23:59 10° NE visible
20 Sep ? 01:57:55 10° WNW 02:02:49 32° NNW 02:07:43 10° NE visible
20 Sep ? 22:04:06 20° ENE 22:04:06 20° ENE 22:06:12 10° ENE visible
20 Sep ? 23:44:37 82° NW 23:44:40 82° NW 23:50:10 10° NE visible
21 Sep ? 01:25:08 17° WNW 01:28:48 35° NNW 01:33:49 10° NE visible
21 Sep ? 21:31:18 13° ENE 21:31:18 13° ENE 21:32:04 10° ENE visible
21 Sep ? 23:11:49 61° ENE 23:11:49 61° ENE 23:16:21 10° NE visible
22 Sep ? 00:52:20 26° WNW 00:54:48 39° NNW 00:59:56 10° NE visible
22 Sep ? 02:34:48 10° WNW 02:39:32 29° N 02:44:17 10° ENE visible
22 Sep ? 22:39:00 39° ENE 22:39:00 39° ENE 22:42:31 10° NE visible
23 Sep ? 00:19:31 38° WNW 00:20:50 44° NNW 00:26:05 10° NE visible
23 Sep ? 02:00:44 10° WNW 02:05:29 29° N 02:10:13 10° ENE visible
23 Sep ? 22:06:10 26° ENE 22:06:10 26° ENE 22:08:38 10° NE visible
23 Sep ? 23:46:41 51° NW 23:46:53 52° NNW 23:52:15 10° NE visible
